Year,Month,Day,Hour,Minute,Value (Times are PST for temperature in C)
2016,07,06,00,00,15.40
2016,07,06,00,01,15.40
2016,07,06,00,02,15.40
2016,07,06,00,03,15.40
2016,07,06,00,04,15.40
2016,07,06,00,05,15.40
2016,07,06,00,06,15.40
2016,07,06,00,07,15.40
2016,07,06,00,08,15.40
2016,07,06,00,09,15.40
2016,07,06,00,10,15.30
2016,07,06,00,11,15.30
2016,07,06,00,12,15.30
2016,07,06,00,13,15.30
2016,07,06,00,14,15.30
2016,07,06,00,15,15.30
2016,07,06,00,16,15.30
2016,07,06,00,17,15.20
2016,07,06,00,18,15.30
2016,07,06,00,19,15.20
2016,07,06,00,20,15.20
2016,07,06,00,21,15.20
2016,07,06,00,22,15.20
2016,07,06,00,23,15.20
2016,07,06,00,24,15.20
2016,07,06,00,25,15.20
2016,07,06,00,26,15.20
2016,07,06,00,27,15.10
2016,07,06,00,28,15.10
2016,07,06,00,29,15.10
2016,07,06,00,30,15.10
2016,07,06,00,31,15.10
2016,07,06,00,32,15.10
2016,07,06,00,33,15.10
2016,07,06,00,34,15.10
2016,07,06,00,35,15.10
2016,07,06,00,36,15.10
2016,07,06,00,37,15.00
2016,07,06,00,38,15.00
2016,07,06,00,39,15.00
2016,07,06,00,40,15.00
2016,07,06,00,41,15.00
2016,07,06,00,42,15.00
2016,07,06,00,43,15.00
2016,07,06,00,44,14.90
2016,07,06,00,45,14.90
2016,07,06,00,46,14.90
2016,07,06,00,47,14.90
2016,07,06,00,48,14.90
2016,07,06,00,49,14.90
2016,07,06,00,50,14.90
2016,07,06,00,51,14.90
2016,07,06,00,52,15.00
2016,07,06,00,53,14.90
2016,07,06,00,54,14.90
2016,07,06,00,55,14.90
2016,07,06,00,56,15.00
2016,07,06,00,57,14.90
2016,07,06,00,58,14.90
2016,07,06,00,59,14.90
2016,07,06,01,00,14.90
2016,07,06,01,01,14.90
2016,07,06,01,02,14.90
2016,07,06,01,03,14.90
2016,07,06,01,04,14.90
2016,07,06,01,05,14.90
2016,07,06,01,06,14.90
2016,07,06,01,07,14.90
2016,07,06,01,08,14.90
2016,07,06,01,09,14.90
2016,07,06,01,10,14.90
2016,07,06,01,11,14.90
2016,07,06,01,12,14.90
2016,07,06,01,13,14.90
2016,07,06,01,14,14.80
2016,07,06,01,15,14.80
2016,07,06,01,16,14.80
2016,07,06,01,17,14.80
2016,07,06,01,18,14.80
2016,07,06,01,19,14.80
2016,07,06,01,20,14.80
2016,07,06,01,21,14.80
2016,07,06,01,22,14.80
2016,07,06,01,23,14.80
2016,07,06,01,24,14.80
2016,07,06,01,25,14.80
2016,07,06,01,26,14.80
2016,07,06,01,27,14.80
2016,07,06,01,28,14.80
2016,07,06,01,29,14.70
2016,07,06,01,30,14.70
2016,07,06,01,31,14.70
2016,07,06,01,32,14.70
2016,07,06,01,33,14.70
2016,07,06,01,34,14.70
2016,07,06,01,35,14.70
2016,07,06,01,36,14.60
2016,07,06,01,37,14.60
2016,07,06,01,38,14.60
2016,07,06,01,39,14.60
2016,07,06,01,40,14.60
2016,07,06,01,41,14.60
2016,07,06,01,42,14.60
2016,07,06,01,43,14.50
2016,07,06,01,44,14.50
2016,07,06,01,45,14.50
2016,07,06,01,46,14.50
2016,07,06,01,47,14.40
2016,07,06,01,48,14.40
2016,07,06,01,49,14.40
2016,07,06,01,50,14.40
2016,07,06,01,51,14.40
2016,07,06,01,52,14.40
2016,07,06,01,53,14.40
2016,07,06,01,54,14.40
2016,07,06,01,55,14.40
2016,07,06,01,56,14.40
2016,07,06,01,57,14.40
2016,07,06,01,58,14.40
2016,07,06,01,59,14.30
2016,07,06,02,00,14.30
2016,07,06,02,01,14.30
2016,07,06,02,02,14.30
2016,07,06,02,03,14.30
2016,07,06,02,04,14.30
2016,07,06,02,05,14.30
2016,07,06,02,06,14.30
2016,07,06,02,07,14.20
2016,07,06,02,08,14.20
2016,07,06,02,09,14.20
2016,07,06,02,10,14.20
2016,07,06,02,11,14.20
2016,07,06,02,12,14.20
2016,07,06,02,13,14.20
2016,07,06,02,14,14.10
2016,07,06,02,15,14.10
2016,07,06,02,16,14.10
2016,07,06,02,17,14.10
2016,07,06,02,18,14.10
2016,07,06,02,19,14.10
2016,07,06,02,20,14.00
2016,07,06,02,21,14.00
2016,07,06,02,22,14.00
2016,07,06,02,23,13.90
2016,07,06,02,24,13.90
2016,07,06,02,25,13.90
2016,07,06,02,26,13.90
2016,07,06,02,27,13.90
2016,07,06,02,28,13.90
2016,07,06,02,29,13.80
2016,07,06,02,30,13.80
2016,07,06,02,31,13.80
2016,07,06,02,32,13.80
2016,07,06,02,33,13.80
2016,07,06,02,34,13.80
2016,07,06,02,35,13.80
2016,07,06,02,36,13.80
2016,07,06,02,37,13.80
2016,07,06,02,38,13.80
2016,07,06,02,39,13.80
2016,07,06,02,40,13.80
2016,07,06,02,41,13.80
2016,07,06,02,42,13.70
2016,07,06,02,43,13.70
2016,07,06,02,44,13.80
2016,07,06,02,45,13.70
2016,07,06,02,46,13.70
2016,07,06,02,47,13.70
2016,07,06,02,48,13.70
2016,07,06,02,49,13.70
2016,07,06,02,50,13.70
2016,07,06,02,51,13.70
2016,07,06,02,52,13.70
2016,07,06,02,53,13.70
2016,07,06,02,54,13.70
2016,07,06,02,55,13.70
2016,07,06,02,56,13.70
2016,07,06,02,57,13.70
2016,07,06,02,58,13.70
2016,07,06,02,59,13.70
2016,07,06,03,00,13.70
2016,07,06,03,01,13.70
2016,07,06,03,02,13.70
2016,07,06,03,03,13.70
2016,07,06,03,04,13.70
2016,07,06,03,05,13.70
2016,07,06,03,06,13.60
2016,07,06,03,07,13.60
2016,07,06,03,08,13.60
2016,07,06,03,09,13.60
2016,07,06,03,10,13.60
2016,07,06,03,11,13.60
2016,07,06,03,12,13.60
2016,07,06,03,13,13.60
2016,07,06,03,14,13.60
2016,07,06,03,15,13.50
2016,07,06,03,16,13.50
2016,07,06,03,17,13.50
2016,07,06,03,18,13.50
2016,07,06,03,19,13.50
2016,07,06,03,20,13.50
2016,07,06,03,21,13.40
2016,07,06,03,22,13.40
2016,07,06,03,23,13.40
2016,07,06,03,24,13.40
2016,07,06,03,25,13.40
2016,07,06,03,26,13.40
2016,07,06,03,27,13.40
2016,07,06,03,28,13.40
2016,07,06,03,29,13.40
2016,07,06,03,30,13.40
2016,07,06,03,31,13.30
2016,07,06,03,32,13.30
2016,07,06,03,33,13.30
2016,07,06,03,34,13.30
2016,07,06,03,35,13.30
2016,07,06,03,36,13.30
2016,07,06,03,37,13.30
2016,07,06,03,38,13.30
2016,07,06,03,39,13.30
2016,07,06,03,40,13.30
2016,07,06,03,41,13.30
2016,07,06,03,42,13.30
2016,07,06,03,43,13.30
2016,07,06,03,44,13.30
2016,07,06,03,45,13.30
2016,07,06,03,46,13.20
2016,07,06,03,47,13.20
2016,07,06,03,48,13.20
2016,07,06,03,49,13.20
2016,07,06,03,50,13.20
2016,07,06,03,51,13.20
2016,07,06,03,52,13.20
2016,07,06,03,53,13.20
2016,07,06,03,54,13.20
2016,07,06,03,55,13.20
2016,07,06,03,56,13.30
2016,07,06,03,57,13.30
2016,07,06,03,58,13.30
2016,07,06,03,59,13.30
2016,07,06,04,00,13.30
2016,07,06,04,01,13.30
2016,07,06,04,02,13.30
2016,07,06,04,03,13.30
2016,07,06,04,04,13.30
2016,07,06,04,05,13.30
2016,07,06,04,06,13.30
2016,07,06,04,07,13.30
2016,07,06,04,08,13.30
2016,07,06,04,09,13.30
2016,07,06,04,10,13.30
2016,07,06,04,11,13.30
2016,07,06,04,12,13.30
2016,07,06,04,13,13.30
2016,07,06,04,14,13.30
2016,07,06,04,15,13.30
2016,07,06,04,16,13.30
2016,07,06,04,17,13.30
2016,07,06,04,18,13.30
2016,07,06,04,19,13.30
2016,07,06,04,20,13.20
2016,07,06,04,21,13.20
2016,07,06,04,22,13.20
2016,07,06,04,23,13.20
2016,07,06,04,24,13.20
2016,07,06,04,25,13.20
2016,07,06,04,26,13.20
2016,07,06,04,27,13.20
2016,07,06,04,28,13.20
2016,07,06,04,29,13.20
2016,07,06,04,30,13.20
2016,07,06,04,31,13.20
2016,07,06,04,32,13.20
2016,07,06,04,33,13.20
2016,07,06,04,34,13.20
2016,07,06,04,35,13.20
2016,07,06,04,36,13.20
2016,07,06,04,37,13.20
2016,07,06,04,38,13.10
2016,07,06,04,39,13.10
2016,07,06,04,40,13.10
2016,07,06,04,41,13.10
2016,07,06,04,42,13.10
2016,07,06,04,43,13.10
2016,07,06,04,44,13.10
2016,07,06,04,45,13.10
2016,07,06,04,46,13.10
2016,07,06,04,47,13.20
2016,07,06,04,48,13.20
2016,07,06,04,49,13.20
2016,07,06,04,50,13.20
2016,07,06,04,51,13.20
2016,07,06,04,52,13.20
2016,07,06,04,53,13.20
2016,07,06,04,54,13.20
2016,07,06,04,55,13.20
2016,07,06,04,56,13.20
2016,07,06,04,57,13.20
2016,07,06,04,58,13.20
2016,07,06,04,59,13.20
2016,07,06,05,00,13.20
2016,07,06,05,01,13.20
2016,07,06,05,02,13.20
2016,07,06,05,03,13.20
2016,07,06,05,04,13.20
2016,07,06,05,05,13.20
2016,07,06,05,06,13.20
2016,07,06,05,07,13.20
2016,07,06,05,08,13.20
2016,07,06,05,09,13.20
2016,07,06,05,10,13.20
2016,07,06,05,11,13.20
2016,07,06,05,12,13.20
2016,07,06,05,13,13.20
2016,07,06,05,14,13.20
2016,07,06,05,15,13.20
2016,07,06,05,16,13.10
2016,07,06,05,17,13.20
2016,07,06,05,18,13.10
2016,07,06,05,19,13.10
2016,07,06,05,20,13.10
2016,07,06,05,21,13.10
2016,07,06,05,22,13.10
2016,07,06,05,23,13.10
2016,07,06,05,24,13.10
2016,07,06,05,25,13.10
2016,07,06,05,26,13.10
2016,07,06,05,27,13.10
2016,07,06,05,28,13.10
2016,07,06,05,29,13.10
2016,07,06,05,30,13.00
2016,07,06,05,31,13.00
2016,07,06,05,32,13.00
2016,07,06,05,33,13.00
2016,07,06,05,34,13.00
2016,07,06,05,35,13.00
2016,07,06,05,36,13.00
2016,07,06,05,37,13.00
2016,07,06,05,38,13.00
2016,07,06,05,39,13.00
2016,07,06,05,40,13.00
2016,07,06,05,41,13.00
2016,07,06,05,42,13.00
2016,07,06,05,43,13.00
2016,07,06,05,44,13.00
2016,07,06,05,45,13.00
2016,07,06,05,46,13.00
2016,07,06,05,47,13.10
2016,07,06,05,48,13.10
2016,07,06,05,49,13.10
2016,07,06,05,50,13.10
2016,07,06,05,51,13.10
2016,07,06,05,52,13.10
2016,07,06,05,53,13.10
2016,07,06,05,54,13.20
2016,07,06,05,55,13.20
2016,07,06,05,56,13.20
2016,07,06,05,57,13.20
2016,07,06,05,58,13.20
2016,07,06,05,59,13.20
2016,07,06,06,00,13.20
2016,07,06,06,01,13.20
2016,07,06,06,02,13.20
2016,07,06,06,03,13.20
2016,07,06,06,04,13.20
2016,07,06,06,05,13.20
2016,07,06,06,06,13.20
2016,07,06,06,07,13.20
2016,07,06,06,08,13.20
2016,07,06,06,09,13.20
2016,07,06,06,10,13.20
2016,07,06,06,11,13.20
2016,07,06,06,12,13.20
2016,07,06,06,13,13.20
2016,07,06,06,14,13.20
2016,07,06,06,15,13.30
2016,07,06,06,16,13.30
2016,07,06,06,17,13.30
2016,07,06,06,18,13.30
2016,07,06,06,19,13.40
2016,07,06,06,20,13.40
2016,07,06,06,21,13.50
2016,07,06,06,22,13.50
2016,07,06,06,23,13.60
2016,07,06,06,24,13.60
2016,07,06,06,25,13.70
2016,07,06,06,26,13.70
2016,07,06,06,27,13.80
2016,07,06,06,28,13.80
2016,07,06,06,29,13.90
2016,07,06,06,30,13.90
2016,07,06,06,31,14.00
2016,07,06,06,32,14.00
2016,07,06,06,33,14.00
2016,07,06,06,34,14.10
2016,07,06,06,35,14.10
2016,07,06,06,36,14.20
2016,07,06,06,37,14.20
2016,07,06,06,38,14.20
2016,07,06,06,39,14.30
2016,07,06,06,40,14.40
2016,07,06,06,41,14.40
2016,07,06,06,42,14.40
2016,07,06,06,43,14.50
2016,07,06,06,44,14.50
2016,07,06,06,45,14.60
2016,07,06,06,46,14.60
2016,07,06,06,47,14.60
2016,07,06,06,48,14.60
2016,07,06,06,49,14.60
2016,07,06,06,50,14.60
2016,07,06,06,51,14.60
2016,07,06,06,52,14.60
2016,07,06,06,53,14.60
2016,07,06,06,54,14.60
2016,07,06,06,55,14.60
2016,07,06,06,56,14.60
2016,07,06,06,57,14.60
2016,07,06,06,58,14.60
2016,07,06,06,59,14.60
2016,07,06,07,00,14.60
2016,07,06,07,01,14.60
2016,07,06,07,02,14.60
2016,07,06,07,03,14.50
2016,07,06,07,04,14.50
2016,07,06,07,05,14.50
2016,07,06,07,06,14.50
2016,07,06,07,07,14.40
2016,07,06,07,08,14.40
2016,07,06,07,09,14.40
2016,07,06,07,10,14.40
2016,07,06,07,11,14.40
2016,07,06,07,12,14.30
2016,07,06,07,13,14.30
2016,07,06,07,14,14.30
2016,07,06,07,15,14.30
2016,07,06,07,16,14.30
2016,07,06,07,17,14.30
2016,07,06,07,18,14.30
2016,07,06,07,19,14.30
2016,07,06,07,20,14.30
2016,07,06,07,21,14.30
2016,07,06,07,22,14.30
2016,07,06,07,23,14.30
2016,07,06,07,24,14.30
2016,07,06,07,25,14.30
2016,07,06,07,26,14.20
2016,07,06,07,27,14.20
2016,07,06,07,28,14.20
2016,07,06,07,29,14.20
2016,07,06,07,30,14.20
2016,07,06,07,31,14.20
2016,07,06,07,32,14.20
2016,07,06,07,33,14.20
2016,07,06,07,34,14.20
2016,07,06,07,35,14.20
2016,07,06,07,36,14.20
2016,07,06,07,37,14.20
2016,07,06,07,38,14.20
2016,07,06,07,39,14.20
2016,07,06,07,40,14.20
2016,07,06,07,41,14.20
2016,07,06,07,42,14.20
2016,07,06,07,43,14.20
2016,07,06,07,44,14.20
2016,07,06,07,45,14.20
2016,07,06,07,46,14.30
2016,07,06,07,47,14.30
2016,07,06,07,48,14.30
2016,07,06,07,49,14.30
2016,07,06,07,50,14.40
2016,07,06,07,51,14.50
2016,07,06,07,52,14.50
2016,07,06,07,53,14.60
2016,07,06,07,54,14.60
2016,07,06,07,55,14.60
2016,07,06,07,56,14.70
2016,07,06,07,57,14.70
2016,07,06,07,58,14.70
2016,07,06,07,59,14.70
2016,07,06,08,00,14.70
2016,07,06,08,01,14.70
2016,07,06,08,02,14.80
2016,07,06,08,03,14.80
2016,07,06,08,04,14.80
2016,07,06,08,05,14.90
2016,07,06,08,06,14.90
2016,07,06,08,07,15.00
2016,07,06,08,08,15.00
2016,07,06,08,09,15.10
2016,07,06,08,10,15.10
2016,07,06,08,11,15.10
2016,07,06,08,12,15.10
2016,07,06,08,13,15.10
2016,07,06,08,14,15.10
2016,07,06,08,15,15.10
2016,07,06,08,16,15.10
2016,07,06,08,17,15.10
2016,07,06,08,18,15.10
2016,07,06,08,19,15.10
2016,07,06,08,20,15.10
2016,07,06,08,21,15.10
2016,07,06,08,22,15.10
2016,07,06,08,23,15.10
2016,07,06,08,24,15.10
2016,07,06,08,25,15.10
2016,07,06,08,26,15.10
2016,07,06,08,27,15.10
2016,07,06,08,28,15.10
2016,07,06,08,29,15.10
2016,07,06,08,30,15.10
2016,07,06,08,31,15.20
2016,07,06,08,32,15.20
2016,07,06,08,33,15.20
2016,07,06,08,34,15.30
2016,07,06,08,35,15.30
2016,07,06,08,36,15.40
2016,07,06,08,37,15.40
2016,07,06,08,38,15.50
2016,07,06,08,39,15.60
2016,07,06,08,40,15.60
2016,07,06,08,41,15.70
2016,07,06,08,42,15.70
2016,07,06,08,43,15.80
2016,07,06,08,44,15.80
2016,07,06,08,45,15.90
2016,07,06,08,46,15.90
2016,07,06,08,47,16.00
2016,07,06,08,48,16.10
2016,07,06,08,49,16.10
2016,07,06,08,50,16.10
2016,07,06,08,51,16.20
2016,07,06,08,52,16.20
2016,07,06,08,53,16.30
2016,07,06,08,54,16.30
2016,07,06,08,55,16.30
2016,07,06,08,56,16.40
2016,07,06,08,57,16.40
2016,07,06,08,58,16.50
2016,07,06,08,59,16.60
2016,07,06,09,00,16.60
2016,07,06,09,01,16.70
2016,07,06,09,02,16.70
2016,07,06,09,03,16.70
2016,07,06,09,04,16.80
2016,07,06,09,05,16.80
2016,07,06,09,06,16.90
2016,07,06,09,07,16.90
2016,07,06,09,08,17.00
2016,07,06,09,09,17.10
2016,07,06,09,10,17.10
2016,07,06,09,11,17.20
2016,07,06,09,12,17.20
2016,07,06,09,13,17.20
2016,07,06,09,14,17.20
2016,07,06,09,15,17.20
2016,07,06,09,16,17.10
2016,07,06,09,17,17.00
2016,07,06,09,18,17.00
2016,07,06,09,19,17.00
2016,07,06,09,20,17.00
2016,07,06,09,21,17.00
2016,07,06,09,22,17.00
2016,07,06,09,23,17.00
2016,07,06,09,24,16.90
2016,07,06,09,25,16.90
2016,07,06,09,26,16.90
2016,07,06,09,27,16.90
2016,07,06,09,28,16.90
2016,07,06,09,29,16.90
2016,07,06,09,30,17.00
2016,07,06,09,31,17.10
2016,07,06,09,32,17.10
2016,07,06,09,33,17.20
2016,07,06,09,34,17.20
2016,07,06,09,35,17.30
2016,07,06,09,36,17.30
2016,07,06,09,37,17.40
2016,07,06,09,38,17.50
2016,07,06,09,39,17.60
2016,07,06,09,40,17.70
2016,07,06,09,41,17.80
2016,07,06,09,42,18.00
2016,07,06,09,43,18.10
2016,07,06,09,44,18.10
2016,07,06,09,45,18.20
2016,07,06,09,46,18.30
2016,07,06,09,47,18.40
2016,07,06,09,48,18.40
2016,07,06,09,49,18.50
2016,07,06,09,50,18.50
2016,07,06,09,51,18.60
2016,07,06,09,52,18.60
2016,07,06,09,53,18.60
2016,07,06,09,54,18.60
2016,07,06,09,55,18.70
2016,07,06,09,56,18.70
2016,07,06,09,57,18.60
2016,07,06,09,58,18.60
2016,07,06,09,59,18.60
2016,07,06,10,00,18.70
2016,07,06,10,01,18.70
2016,07,06,10,02,18.80
2016,07,06,10,03,18.80
2016,07,06,10,04,18.90
2016,07,06,10,05,18.90
2016,07,06,10,06,19.00
2016,07,06,10,07,19.00
2016,07,06,10,08,19.10
2016,07,06,10,09,19.00
2016,07,06,10,10,18.90
2016,07,06,10,11,18.90
2016,07,06,10,12,19.00
2016,07,06,10,13,19.00
2016,07,06,10,14,19.10
2016,07,06,10,15,19.10
2016,07,06,10,16,19.10
2016,07,06,10,17,19.10
2016,07,06,10,18,19.10
2016,07,06,10,19,19.00
2016,07,06,10,20,19.00
2016,07,06,10,21,18.90
2016,07,06,10,22,19.00
2016,07,06,10,23,18.90
2016,07,06,10,24,18.90
2016,07,06,10,25,18.90
2016,07,06,10,26,18.80
2016,07,06,10,27,18.80
2016,07,06,10,28,18.70
2016,07,06,10,29,18.60
2016,07,06,10,30,18.50
2016,07,06,10,31,18.40
2016,07,06,10,32,18.30
2016,07,06,10,33,18.30
2016,07,06,10,34,18.30
2016,07,06,10,35,18.20
2016,07,06,10,36,18.20
2016,07,06,10,37,18.10
2016,07,06,10,38,18.10
2016,07,06,10,39,18.10
2016,07,06,10,40,18.10
2016,07,06,10,41,18.10
2016,07,06,10,42,18.10
2016,07,06,10,43,18.20
2016,07,06,10,44,18.20
2016,07,06,10,45,18.30
2016,07,06,10,46,18.30
2016,07,06,10,47,18.40
2016,07,06,10,48,18.40
2016,07,06,10,49,18.30
2016,07,06,10,50,18.30
2016,07,06,10,51,18.30
2016,07,06,10,52,18.20
2016,07,06,10,53,18.20
2016,07,06,10,54,18.20
2016,07,06,10,55,18.20
2016,07,06,10,56,18.30
2016,07,06,10,57,18.30
2016,07,06,10,58,18.30
2016,07,06,10,59,18.40
2016,07,06,11,00,18.40
2016,07,06,11,01,18.50
2016,07,06,11,02,18.60
2016,07,06,11,03,18.60
2016,07,06,11,04,18.60
2016,07,06,11,05,18.70
2016,07,06,11,06,18.70
2016,07,06,11,07,18.80
2016,07,06,11,08,18.70
2016,07,06,11,09,18.70
2016,07,06,11,10,18.70
2016,07,06,11,11,18.70
2016,07,06,11,12,18.70
2016,07,06,11,13,18.60
2016,07,06,11,14,18.60
2016,07,06,11,15,18.60
2016,07,06,11,16,18.60
2016,07,06,11,17,18.70
2016,07,06,11,18,18.70
2016,07,06,11,19,18.80
2016,07,06,11,20,18.80
2016,07,06,11,21,18.80
2016,07,06,11,22,18.90
2016,07,06,11,23,18.90
2016,07,06,11,24,18.90
2016,07,06,11,25,18.90
2016,07,06,11,26,18.90
2016,07,06,11,27,18.90
2016,07,06,11,28,18.90
2016,07,06,11,29,18.90
2016,07,06,11,30,19.00
2016,07,06,11,31,19.00
2016,07,06,11,32,19.10
2016,07,06,11,33,19.10
2016,07,06,11,34,19.20
2016,07,06,11,35,19.10
2016,07,06,11,36,19.10
2016,07,06,11,37,19.10
2016,07,06,11,38,19.10
2016,07,06,11,39,19.10
2016,07,06,11,40,19.10
2016,07,06,11,41,19.10
2016,07,06,11,42,19.10
2016,07,06,11,43,19.10
2016,07,06,11,44,19.10
2016,07,06,11,45,19.10
2016,07,06,11,46,19.20
2016,07,06,11,47,19.20
2016,07,06,11,48,19.20
2016,07,06,11,49,19.20
2016,07,06,11,50,19.20
2016,07,06,11,51,19.30
2016,07,06,11,52,19.20
2016,07,06,11,53,19.10
2016,07,06,11,54,19.00
2016,07,06,11,55,19.00
2016,07,06,11,56,19.10
2016,07,06,11,57,19.00
2016,07,06,11,58,19.10
2016,07,06,11,59,19.10
2016,07,06,12,00,19.10
2016,07,06,12,01,19.10
2016,07,06,12,02,19.20
2016,07,06,12,03,19.10
2016,07,06,12,04,19.10
2016,07,06,12,05,19.00
2016,07,06,12,06,19.10
2016,07,06,12,07,19.10
2016,07,06,12,08,19.20
2016,07,06,12,09,19.20
2016,07,06,12,10,19.30
2016,07,06,12,11,19.40
2016,07,06,12,12,19.40
2016,07,06,12,13,19.40
2016,07,06,12,14,19.40
2016,07,06,12,15,19.40
2016,07,06,12,16,19.40
2016,07,06,12,17,19.40
2016,07,06,12,18,19.50
2016,07,06,12,19,19.60
2016,07,06,12,20,19.60
2016,07,06,12,21,19.70
2016,07,06,12,22,19.80
2016,07,06,12,23,19.80
2016,07,06,12,24,19.80
2016,07,06,12,25,19.80
2016,07,06,12,26,19.80
2016,07,06,12,27,19.80
2016,07,06,12,28,19.80
2016,07,06,12,29,19.80
2016,07,06,12,30,19.70
2016,07,06,12,31,19.60
2016,07,06,12,32,19.50
2016,07,06,12,33,19.50
2016,07,06,12,34,19.50
2016,07,06,12,35,19.50
2016,07,06,12,36,19.50
2016,07,06,12,37,19.60
2016,07,06,12,38,19.60
2016,07,06,12,39,19.70
2016,07,06,12,40,19.80
2016,07,06,12,41,20.00
2016,07,06,12,42,20.00
2016,07,06,12,43,20.10
2016,07,06,12,44,20.10
2016,07,06,12,45,20.10
2016,07,06,12,46,20.10
2016,07,06,12,47,20.10
2016,07,06,12,48,20.10
2016,07,06,12,49,20.00
2016,07,06,12,50,20.00
2016,07,06,12,51,19.90
2016,07,06,12,52,19.80
2016,07,06,12,53,19.80
2016,07,06,12,54,19.80
2016,07,06,12,55,19.80
2016,07,06,12,56,19.70
2016,07,06,12,57,19.70
2016,07,06,12,58,19.60
2016,07,06,12,59,19.60
2016,07,06,13,00,19.60
2016,07,06,13,01,19.60
2016,07,06,13,02,19.60
2016,07,06,13,03,19.60
2016,07,06,13,04,19.60
2016,07,06,13,05,19.70
2016,07,06,13,06,19.80
2016,07,06,13,07,19.80
2016,07,06,13,08,19.90
2016,07,06,13,09,20.00
2016,07,06,13,10,20.00
2016,07,06,13,11,20.00
2016,07,06,13,12,20.10
2016,07,06,13,13,20.20
2016,07,06,13,14,20.20
2016,07,06,13,15,20.20
2016,07,06,13,16,20.20
2016,07,06,13,17,20.30
2016,07,06,13,18,20.30
2016,07,06,13,19,20.30
2016,07,06,13,20,20.40
2016,07,06,13,21,20.40
2016,07,06,13,22,20.40
2016,07,06,13,23,20.40
2016,07,06,13,24,20.50
2016,07,06,13,25,20.50
2016,07,06,13,26,20.50
2016,07,06,13,27,20.50
2016,07,06,13,28,20.40
2016,07,06,13,29,20.40
2016,07,06,13,30,20.30
2016,07,06,13,31,20.30
2016,07,06,13,32,20.30
2016,07,06,13,33,20.30
2016,07,06,13,34,20.30
2016,07,06,13,35,20.30
2016,07,06,13,36,20.30
2016,07,06,13,37,20.30
2016,07,06,13,38,20.40
2016,07,06,13,39,20.40
2016,07,06,13,40,20.30
2016,07,06,13,41,20.20
2016,07,06,13,42,20.20
2016,07,06,13,43,20.20
2016,07,06,13,44,20.20
2016,07,06,13,45,20.20
2016,07,06,13,46,20.20
2016,07,06,13,47,20.10
2016,07,06,13,48,19.90
2016,07,06,13,49,19.80
2016,07,06,13,50,19.60
2016,07,06,13,51,19.60
2016,07,06,13,52,19.60
2016,07,06,13,53,19.60
2016,07,06,13,54,19.60
2016,07,06,13,55,19.60
2016,07,06,13,56,19.70
2016,07,06,13,57,19.80
2016,07,06,13,58,19.90
2016,07,06,13,59,19.90
2016,07,06,14,00,19.90
2016,07,06,14,01,20.00
2016,07,06,14,02,20.00
2016,07,06,14,03,20.10
2016,07,06,14,04,20.10
2016,07,06,14,05,20.20
2016,07,06,14,06,20.20
2016,07,06,14,07,20.30
2016,07,06,14,08,20.30
2016,07,06,14,09,20.40
2016,07,06,14,10,20.40
2016,07,06,14,11,20.50
2016,07,06,14,12,20.50
2016,07,06,14,13,20.60
2016,07,06,14,14,20.60
2016,07,06,14,15,20.70
2016,07,06,14,16,20.70
2016,07,06,14,17,20.70
2016,07,06,14,18,20.70
2016,07,06,14,19,20.70
2016,07,06,14,20,20.80
2016,07,06,14,21,20.80
2016,07,06,14,22,20.90
2016,07,06,14,23,21.00
2016,07,06,14,24,21.10
2016,07,06,14,25,21.10
2016,07,06,14,26,21.10
2016,07,06,14,27,21.20
2016,07,06,14,28,21.20
2016,07,06,14,29,21.30
2016,07,06,14,30,21.30
2016,07,06,14,31,21.40
2016,07,06,14,32,21.40
2016,07,06,14,33,21.50
2016,07,06,14,34,21.50
2016,07,06,14,35,21.60
2016,07,06,14,36,21.50
2016,07,06,14,37,21.50
2016,07,06,14,38,21.50
2016,07,06,14,39,21.50
2016,07,06,14,40,21.50
2016,07,06,14,41,21.50
2016,07,06,14,42,21.60
2016,07,06,14,43,21.60
2016,07,06,14,44,21.60
2016,07,06,14,45,21.60
2016,07,06,14,46,21.50
2016,07,06,14,47,21.30
2016,07,06,14,48,21.10
2016,07,06,14,49,20.90
2016,07,06,14,50,20.80
2016,07,06,14,51,20.70
2016,07,06,14,52,20.70
2016,07,06,14,53,20.60
2016,07,06,14,54,20.70
2016,07,06,14,55,20.60
2016,07,06,14,56,20.60
2016,07,06,14,57,20.50
2016,07,06,14,58,20.50
2016,07,06,14,59,20.40
2016,07,06,15,00,20.40
2016,07,06,15,01,20.50
2016,07,06,15,02,20.60
2016,07,06,15,03,20.60
2016,07,06,15,04,20.70
2016,07,06,15,05,20.80
2016,07,06,15,06,20.90
2016,07,06,15,07,21.00
2016,07,06,15,08,21.10
2016,07,06,15,09,21.20
2016,07,06,15,10,21.30
2016,07,06,15,11,21.30
2016,07,06,15,12,21.30
2016,07,06,15,13,21.30
2016,07,06,15,14,21.30
2016,07,06,15,15,21.30
2016,07,06,15,16,21.30
2016,07,06,15,17,21.30
2016,07,06,15,18,21.20
2016,07,06,15,19,21.20
2016,07,06,15,20,21.10
2016,07,06,15,21,21.10
2016,07,06,15,22,21.00
2016,07,06,15,23,20.90
2016,07,06,15,24,20.80
2016,07,06,15,25,20.60
2016,07,06,15,26,20.50
2016,07,06,15,27,20.40
2016,07,06,15,28,20.30
2016,07,06,15,29,20.20
2016,07,06,15,30,20.10
2016,07,06,15,31,20.00
2016,07,06,15,32,19.90
2016,07,06,15,33,19.90
2016,07,06,15,34,19.90
2016,07,06,15,35,19.80
2016,07,06,15,36,19.80
2016,07,06,15,37,19.80
2016,07,06,15,38,19.90
2016,07,06,15,39,19.90
2016,07,06,15,40,20.10
2016,07,06,15,41,20.20
2016,07,06,15,42,20.30
2016,07,06,15,43,20.50
2016,07,06,15,44,20.70
2016,07,06,15,45,20.90
2016,07,06,15,46,21.10
2016,07,06,15,47,21.30
2016,07,06,15,48,21.40
2016,07,06,15,49,21.60
2016,07,06,15,50,21.70
2016,07,06,15,51,21.80
2016,07,06,15,52,21.90
2016,07,06,15,53,22.00
2016,07,06,15,54,22.10
2016,07,06,15,55,22.10
2016,07,06,15,56,22.10
2016,07,06,15,57,22.20
2016,07,06,15,58,22.20
2016,07,06,15,59,22.20
2016,07,06,16,00,22.20
2016,07,06,16,01,22.30
2016,07,06,16,02,22.30
2016,07,06,16,03,22.40
2016,07,06,16,04,22.40
2016,07,06,16,05,22.40
2016,07,06,16,06,22.40
2016,07,06,16,07,22.40
2016,07,06,16,08,22.30
2016,07,06,16,09,22.30
2016,07,06,16,10,22.30
2016,07,06,16,11,22.20
2016,07,06,16,12,22.20
2016,07,06,16,13,22.20
2016,07,06,16,14,22.20
2016,07,06,16,15,22.20
2016,07,06,16,16,22.20
2016,07,06,16,17,22.10
2016,07,06,16,18,22.10
2016,07,06,16,19,22.10
2016,07,06,16,20,22.10
2016,07,06,16,21,22.10
2016,07,06,16,22,22.20
2016,07,06,16,23,22.20
2016,07,06,16,24,22.10
2016,07,06,16,25,22.10
2016,07,06,16,26,21.90
2016,07,06,16,27,21.80
2016,07,06,16,28,21.80
2016,07,06,16,29,21.80
2016,07,06,16,30,21.70
2016,07,06,16,31,21.70
2016,07,06,16,32,21.70
2016,07,06,16,33,21.60
2016,07,06,16,34,21.50
2016,07,06,16,35,21.40
2016,07,06,16,36,21.40
2016,07,06,16,37,21.30
2016,07,06,16,38,21.30
2016,07,06,16,39,21.20
2016,07,06,16,40,21.20
2016,07,06,16,41,21.10
2016,07,06,16,42,21.20
2016,07,06,16,43,21.20
2016,07,06,16,44,21.20
2016,07,06,16,45,21.30
2016,07,06,16,46,21.30
2016,07,06,16,47,21.50
2016,07,06,16,48,21.50
2016,07,06,16,49,21.60
2016,07,06,16,50,21.70
2016,07,06,16,51,21.80
2016,07,06,16,52,21.80
2016,07,06,16,53,21.80
2016,07,06,16,54,21.80
2016,07,06,16,55,21.80
2016,07,06,16,56,21.90
2016,07,06,16,57,21.90
2016,07,06,16,58,21.80
2016,07,06,16,59,21.80
2016,07,06,17,00,21.80
2016,07,06,17,01,21.70
2016,07,06,17,02,21.70
2016,07,06,17,03,21.70
2016,07,06,17,04,21.60
2016,07,06,17,05,21.50
2016,07,06,17,06,21.50
2016,07,06,17,07,21.40
2016,07,06,17,08,21.30
2016,07,06,17,09,21.30
2016,07,06,17,10,21.20
2016,07,06,17,11,21.10
2016,07,06,17,12,21.00
2016,07,06,17,13,20.90
2016,07,06,17,14,20.80
2016,07,06,17,15,20.70
2016,07,06,17,16,20.60
2016,07,06,17,17,20.60
2016,07,06,17,18,20.50
2016,07,06,17,19,20.50